Regional Weather Roundup
Issued by NWS

Home | Current Version | Previous Version | Text Only | Print | Product List | Glossary On
Versions: 1 2 3 4 5 6 7 8 9 10 11 12 13 14 15 16 17 18 19 20 21 22 23 24 25 26 27 28 29 30 31 32 33 34 35 36 37 38 39 40 41 42 43 44 45 46 47 48 49 50
000
ASUS43 KOAX 211102
RWRNE

WEATHER ROUNDUP FOR NEBRASKA
NATIONAL WEATHER SERVICE OMAHA NE
500 AM CST SUN JAN 21 2018

NOTES: SATELLITE DATA IS BEING USED TO AUGMENT CLOUD COVER ABOVE
       12000 FEET.
       "FAIR" INDICATES FEW OR NO CLOUDS BELOW 12,000 FEET WITH NO
       SIGNIFICANT WEATHER AND/OR OBSTRUCTIONS TO VISIBILITY.


NEZ001>004-019>022-054>056-211200-
NEBRASKA PANHANDLE

CITY           SKY/WX    TMP DP  RH WIND       PRES   REMARKS
SCOTTSBLUFF    LGT SNOW  30  28  92 N14       29.89S FOG     WCI  19
ALLIANCE       LGT SNOW  28  28 100 NE16G26   29.87S FOG     WCI  16
CHADRON        LGT SNOW  30  29  96 N8        29.94F VSB 1   WCI  22
GORDON         LGT SNOW  30  28  93 NE10      29.90F WCI  21
KIMBALL        LGT SNOW  29  28  99 CALM      29.84F
SIDNEY         LGT SNOW  30  28  92 NE13      29.85R FOG     WCI  20
$$

NEZ057>060-069>072-079>082-211200-
SOUTHWEST NEBRASKA

CITY           SKY/WX    TMP DP  RH WIND       PRES   REMARKS
NORTH PLATTE   MOCLDY    34  29  82 NE17      29.81F WCI  23
IMPERIAL       CLOUDY    31  29  92 NE16      29.81S WCI  20
LEXINGTON      CLOUDY    33  29  86 N12       29.81S WCI  25
MCCOOK         CLOUDY    32  28  85 N15       29.78F WCI  22
OGALLALA       CLOUDY    35  32  88 NE15      29.84S WCI  25
$$

NEZ005>010-023>029-035>040-094-211200-
NORTH CENTRAL NEBRASKA

CITY           SKY/WX    TMP DP  RH WIND       PRES   REMARKS
VALENTINE      CLOUDY    34  32  92 N16       29.91F WCI  24
AINSWORTH      CLOUDY    32  32  97 N14       29.89S WCI  22
BROKEN BOW     MOCLDY    33  28  81 N13       29.82S WCI  24
O`NEILL        CLOUDY    32  32 100 N10       29.88S WCI  24
ORD            CLOUDY    33  29  85 N14       29.82F WCI  23
THEDFORD       CLOUDY    33  31  93 N13G21    29.86F WCI  24
$$

NEZ041-046>049-061>064-073>077-083>087-211200-
SOUTH CENTRAL NEBRASKA

CITY           SKY/WX    TMP DP  RH WIND       PRES   REMARKS
GRAND ISLAND   CLOUDY    33  31  92 N12       29.80F WCI  24
AURORA         CLOUDY    34  31  89 N9        29.79S WCI  27
HASTINGS       CLOUDY    34  31  88 NE13      29.77F FOG     WCI  25
HEBRON         CLOUDY    40  39  97 NE7       29.75F FOG
HOLDREGE       CLOUDY    32  32 100 N12       29.77S FOG     WCI  23
KEARNEY        CLOUDY    32  29  88 N14       29.78F WCI  22
YORK           CLOUDY    36  36 100 NE10      29.79F WCI  28
$$

NEZ011>018-030>034-042>045-211200-
NORTHEAST NEBRASKA

CITY           SKY/WX    TMP DP  RH WIND       PRES   REMARKS
NORFOLK        CLOUDY    36  30  79 CALM      29.84S
ALBION         PTCLDY    30  28  92 CALM      29.84S
BLAIR          CLOUDY    38  36  89 N9        29.82S WCI  32
COLUMBUS       CLOUDY    35  31  85 N8        29.83F WCI  29
FREMONT        CLOUDY    38  35  87 N3        29.83F
TEKAMAH        CLOUDY    36  30  79 N10       29.85F WCI  28
WAYNE          MOCLDY    30  29  96 N8        29.86S WCI  22
$$

NEZ050>053-065>068-078-088>093-211200-
SOUTHEAST NEBRASKA

CITY           SKY/WX    TMP DP  RH WIND       PRES   REMARKS
LINCOLN        CLOUDY    39  36  89 N7        29.82R WCI  34
OMAHA EPPLEY   CLOUDY    39  36  89 N9        29.83F WCI  33
BEATRICE       FOG       40  40 100 NE7       29.77S VSB 1/2
FALLS CITY     FOG       40  40 100 E6        29.77F VSB 1/4
NEBRASKA CITY  CLOUDY    40  40 100 NE6       29.79S FOG
PLATTSMOUTH    CLOUDY    39  38  99 NE5       29.80S FOG
$$

NEZ044-045-051>053-067-211200-
OMAHA AREA

CITY           SKY/WX    TMP DP  RH WIND       PRES   REMARKS
OMAHA EPPLEY   CLOUDY    39  36  89 N9        29.83F WCI  33
BLAIR          CLOUDY    38  36  89 N9        29.82S WCI  32
FREMONT        CLOUDY    38  35  87 N3        29.83F
MILLARD        CLOUDY    42  38  87 CALM      29.82S
OFFUTT AFB     CLOUDY    39  37  90 NE8       29.80F WCI  34
PLATTSMOUTH    CLOUDY    39  38  99 NE5       29.80S FOG
WAHOO          CLOUDY    39  35  84 N9        29.82S WCI  33
$$




USA.gov is the U.S. government's official web portal to all federal, state and local government web resources and services.